This is the latest recevied weather packets stored in our database for station/object KC9Q. If no packets are shown the sender has not sent any weather packets the latest 1 day(s).
| Time | Temp. | Humidity | Pressure | Rain* | Wind** | Luminosity | Snow |
|---|---|---|---|---|---|---|---|
| 1778032139 | 11.67° C | 99% | 1006.8 hPa | 0 mm | - | 0 W/m² | - |
| 1778031836 | 11.67° C | 99% | 1006.4 hPa | 0.51 mm | - | 0 W/m² | - |
| 1778031532 | 11.67° C | 99% | 1006.3 hPa | 1.27 mm | - | 0 W/m² | - |
| 1778030926 | 12.22° C | 99% | 1006.5 hPa | 1.27 mm | - | 0 W/m² | - |
| 1778030623 | 12.22° C | 99% | 1006.5 hPa | 1.78 mm | - | 0 W/m² | - |
| 1778030320 | 12.22° C | 99% | 1006.1 hPa | 1.27 mm | - | 0 W/m² | - |
| 1778030017 | 12.22° C | 99% | 1006.1 hPa | 1.27 mm | - | 0 W/m² | - |
| 1778029412 | 12.22° C | 99% | 1006 hPa | 0 mm | - | 0 W/m² | - |
| 1778029109 | 12.22° C | 99% | 1005.9 hPa | 0.51 mm | - | 0 W/m² | - |
| 1778028806 | 12.22° C | 99% | 1005.9 hPa | 0.51 mm | - | 0 W/m² | - |
| 1778028502 | 12.22° C | 99% | 1005.9 hPa | 0 mm | - | 0 W/m² | - |
| 1778027895 | 12.22° C | 99% | 1005.9 hPa | 0.51 mm | - | 1 W/m² | - |
| 1778027592 | 12.22° C | 99% | 1006.1 hPa | 0.51 mm | - | 1 W/m² | - |
| 1778026985 | 12.78° C | 99% | 1006 hPa | 0 mm | - | 2 W/m² | - |
| 1778026075 | 12.78° C | 99% | 1005.7 hPa | 1.78 mm | - | 8 W/m² | - |
| 1778025167 | 12.78° C | 99% | 1006.4 hPa | 1.78 mm | - | 6 W/m² | - |
| 1778022746 | 13.89° C | 99% | 1005.7 hPa | 0.51 mm | - | 21 W/m² | - |
| 1778018501 | 17.22° C | 99% | 1006.1 hPa | 0.51 mm | - | 29 W/m² | - |
| 1778017291 | 17.22° C | 99% | 1006.3 hPa | 1.27 mm | - | 41 W/m² | - |
| 1778016989 | 17.22° C | 99% | 1006.2 hPa | 0.51 mm | - | 51 W/m² | - |
| 1778016685 | 17.22° C | 99% | 1006.3 hPa | 1.27 mm | - | 58 W/m² | - |
| 1778014564 | 17.22° C | 99% | 1006.4 hPa | 2.29 mm | - | 27 W/m² | - |
* Rain latest hour (hover to see other rain measurements)
** Current wind speed in m/s (hover to see current wind gust speed)